Brookings, SD

7:45 AM CDT on August 24, 2016 (GMT -0500)
Brookings Municipal

Weather History for KBKX - February, 2012

Change the Weather History Date:

Tuesday, February 21, 2012

  Actual Average Record
Temperature  
Mean Temperature 30 °F -  
Max Temperature 33 °F 28 °F 62 °F (2000)
Min Temperature 26 °F 13 °F -18 °F (2001)
Degree Days  
Heating Degree Days 36    
Moisture  
Dew Point 26 °F    
Average Humidity 85    
Maximum Humidity 100    
Minimum Humidity 70    
Precipitation  
Precipitation 0.00 in - - ()
Sea Level Pressure  
Sea Level Pressure 29.67 in    
Wind  
Wind Speed 12 mph (West)    
Max Wind Speed 20 mph    
Max Gust Speed 25 mph    
Visibility 10 miles    
Events      
Averages and records for this station are not official NWS values.
T = Trace of Precipitation, MM = Missing Value Source: NWS Daily Summary

Daily Weather History Graph

Daily Weather History Graph

Search for Another Location

Airport or City:

Trip Planner

Search our weather history database for the weather conditions in past years. The results will help you decide how hot, cold, wet, or windy it might be!

Date:

Astronomy

Feb. 21, 2012 Rise Set
Actual Time 7:18 AM CST 6:04 PM CST
Civil Twilight 6:48 AM CST 6:33 PM CST
Nautical Twilight 6:15 AM CST 7:07 PM CST
Astronomical Twilight 5:41 AM CST 7:40 PM CST
Moon 6:46 AM CST (2/21) 6:14 PM CST (2/21)
Length of Visible Light 11h 44m
Length of Day
10h 45m
Waning Crescent, 0% of the Moon is Illuminated
Feb 21
Waning Crescent
Feb 21
New
Feb 29
First Quarter
Mar 8
Full
Mar 14
Last Quarter

Hourly Weather History & Observations

Time (CST) Temp. Windchill Dew Point Humidity Pressure Visibility Wind Dir Wind Speed Gust Speed Precip Events Conditions
12:15 AM 32.0 °F 24.8 °F 30.2 °F 93% 29.63 in 9.0 mi WNW 8.1 mph - N/A   Overcast
12:35 AM 30.2 °F 21.3 °F 28.4 °F 93% 29.63 in 10.0 mi WNW 10.4 mph - N/A   Overcast
12:55 AM 30.2 °F 20.8 °F 30.2 °F 100% 29.64 in 10.0 mi WNW 11.5 mph - N/A   Overcast
1:15 AM 30.2 °F 19.8 °F 30.2 °F 100% 29.65 in 10.0 mi WNW 13.8 mph 19.6 mph N/A   Overcast
1:35 AM 30.2 °F 19.3 °F 30.2 °F 100% 29.66 in 7.0 mi WNW 15.0 mph 20.7 mph N/A   Overcast
1:55 AM 30.2 °F 20.8 °F 30.2 °F 100% 29.65 in 5.0 mi WNW 11.5 mph 16.1 mph N/A   Overcast
2:15 AM 30.2 °F 21.3 °F 28.4 °F 93% 29.65 in 8.0 mi WNW 10.4 mph 16.1 mph N/A   Overcast
2:35 AM 30.2 °F 21.9 °F 28.4 °F 93% 29.65 in 8.0 mi WNW 9.2 mph - N/A   Overcast
2:55 AM 30.2 °F 22.6 °F 28.4 °F 93% 29.64 in 4.0 mi WNW 8.1 mph - N/A   Overcast
3:35 AM 30.2 °F 22.6 °F 30.2 °F 100% 29.64 in 4.0 mi West 8.1 mph - N/A   Overcast
3:55 AM 30.2 °F 21.3 °F 30.2 °F 100% 29.64 in 5.0 mi West 10.4 mph - N/A   Overcast
4:15 AM 28.4 °F 20.4 °F 28.4 °F 100% 29.64 in 10.0 mi West 8.1 mph - N/A   Overcast
4:35 AM 28.4 °F 19.7 °F 26.6 °F 93% 29.64 in 10.0 mi West 9.2 mph - N/A   Mostly Cloudy
4:55 AM 28.4 °F 20.4 °F 24.8 °F 86% 29.65 in 10.0 mi West 8.1 mph - N/A   Mostly Cloudy
5:15 AM 28.4 °F 20.4 °F 24.8 °F 86% 29.64 in 10.0 mi WNW 8.1 mph - N/A   Overcast
5:35 AM 28.4 °F 20.4 °F 24.8 °F 86% 29.65 in 10.0 mi West 8.1 mph - N/A   Scattered Clouds
5:55 AM 28.4 °F 20.4 °F 24.8 °F 86% 29.65 in 10.0 mi West 8.1 mph - N/A   Clear
6:15 AM 28.4 °F 18.5 °F 24.8 °F 86% 29.65 in 10.0 mi WNW 11.5 mph 16.1 mph N/A   Scattered Clouds
6:35 AM 28.4 °F 18.0 °F 24.8 °F 86% 29.65 in 10.0 mi WNW 12.7 mph 17.3 mph N/A   Partly Cloudy
6:55 AM 28.4 °F 18.5 °F 24.8 °F 86% 29.66 in 10.0 mi WNW 11.5 mph 17.3 mph N/A   Clear
7:15 AM 28.4 °F 17.0 °F 24.8 °F 86% 29.67 in 10.0 mi WNW 15.0 mph 25.3 mph N/A   Clear
7:35 AM 26.6 °F 14.3 °F 23.0 °F 86% 29.67 in 10.0 mi West 16.1 mph 24.2 mph N/A   Clear
7:55 AM 26.6 °F 14.7 °F 23.0 °F 86% 29.68 in 10.0 mi WNW 15.0 mph 23.0 mph N/A   Partly Cloudy
8:15 AM 26.6 °F 14.7 °F 21.2 °F 80% 29.69 in 10.0 mi WNW 15.0 mph 21.9 mph N/A   Mostly Cloudy
8:35 AM 26.6 °F 14.3 °F 23.0 °F 86% 29.69 in 10.0 mi WNW 16.1 mph - N/A   Overcast
8:55 AM 26.6 °F 14.3 °F 23.0 °F 86% 29.70 in 10.0 mi WNW 16.1 mph 25.3 mph N/A   Overcast
9:15 AM 28.4 °F 17.0 °F 23.0 °F 80% 29.69 in 10.0 mi WNW 15.0 mph 21.9 mph N/A   Overcast
9:35 AM 28.4 °F 15.4 °F 24.8 °F 86% 29.70 in 10.0 mi WNW 19.6 mph 25.3 mph N/A   Overcast
9:55 AM 28.4 °F 15.8 °F 24.8 °F 86% 29.70 in 10.0 mi WNW 18.4 mph 23.0 mph N/A   Overcast
10:15 AM 28.4 °F 15.8 °F 24.8 °F 86% 29.70 in 10.0 mi WNW 18.4 mph 24.2 mph N/A   Overcast
10:35 AM 28.4 °F 16.6 °F 24.8 °F 86% 29.71 in 10.0 mi WNW 16.1 mph 23.0 mph N/A   Overcast
10:55 AM 28.4 °F 17.0 °F 24.8 °F 86% 29.71 in 10.0 mi WNW 15.0 mph 21.9 mph N/A   Overcast
11:15 AM 28.4 °F 16.6 °F 24.8 °F 86% 29.71 in 10.0 mi West 16.1 mph 21.9 mph N/A   Scattered Clouds
11:35 AM 28.4 °F 17.0 °F 24.8 °F 86% 29.71 in 10.0 mi West 15.0 mph 24.2 mph N/A   Scattered Clouds
11:55 AM 28.4 °F 18.5 °F 24.8 °F 86% 29.71 in 10.0 mi West 11.5 mph 20.7 mph N/A   Scattered Clouds
12:15 PM 30.2 °F 19.8 °F 24.8 °F 80% 29.71 in 10.0 mi West 13.8 mph 23.0 mph N/A   Partly Cloudy
12:35 PM 30.2 °F 19.3 °F 24.8 °F 80% 29.70 in 10.0 mi West 15.0 mph 19.6 mph N/A   Partly Cloudy
12:55 PM 30.2 °F 20.2 °F 24.8 °F 80% 29.70 in 10.0 mi West 12.7 mph 24.2 mph N/A   Partly Cloudy
1:15 PM 30.2 °F 19.3 °F 24.8 °F 80% 29.69 in 10.0 mi WNW 15.0 mph 19.6 mph N/A   Partly Cloudy
1:35 PM 32.0 °F 21.2 °F 24.8 °F 75% 29.69 in 10.0 mi WNW 16.1 mph 19.6 mph N/A   Clear
1:55 PM 32.0 °F 22.5 °F 24.8 °F 75% 29.69 in 10.0 mi West 12.7 mph 19.6 mph N/A   Clear
2:15 PM 32.0 °F 22.5 °F 24.8 °F 75% 29.68 in 10.0 mi West 12.7 mph 18.4 mph N/A   Clear
2:35 PM 32.0 °F 22.5 °F 24.8 °F 75% 29.67 in 10.0 mi West 12.7 mph - N/A   Clear
2:55 PM 32.0 °F 21.2 °F 24.8 °F 75% 29.68 in 10.0 mi West 16.1 mph 20.7 mph N/A   Partly Cloudy
3:15 PM 33.8 °F 23.2 °F 24.8 °F 70% 29.68 in 10.0 mi West 17.3 mph 20.7 mph N/A   Partly Cloudy
3:35 PM 33.8 °F 23.9 °F 24.8 °F 70% 29.68 in 10.0 mi West 15.0 mph 20.7 mph N/A   Clear
3:55 PM 33.8 °F 23.9 °F 26.6 °F 75% 29.68 in 10.0 mi WSW 15.0 mph - N/A   Partly Cloudy
4:15 PM 33.8 °F 23.9 °F 26.6 °F 75% 29.68 in 10.0 mi WSW 15.0 mph - N/A   Clear
4:35 PM 33.8 °F 23.9 °F 26.6 °F 75% 29.68 in 10.0 mi WSW 15.0 mph - N/A   Clear
4:55 PM 33.8 °F 23.9 °F 26.6 °F 75% 29.67 in 10.0 mi WSW 15.0 mph - N/A   Partly Cloudy
5:15 PM 33.8 °F 24.8 °F 26.6 °F 75% 29.66 in 10.0 mi SW 12.7 mph - N/A   Scattered Clouds
5:35 PM 32.0 °F 23.0 °F 26.6 °F 80% 29.66 in 10.0 mi WSW 11.5 mph - N/A   Clear
5:55 PM 30.2 °F 20.8 °F 26.6 °F 86% 29.66 in 10.0 mi WSW 11.5 mph - N/A   Scattered Clouds
6:15 PM 30.2 °F 20.8 °F 26.6 °F 86% 29.66 in 10.0 mi SW 11.5 mph - N/A   Overcast
7:15 PM 30.2 °F 19.3 °F 26.6 °F 86% 29.65 in 10.0 mi SW 15.0 mph - N/A   Overcast
7:35 PM 30.2 °F 20.8 °F 26.6 °F 86% 29.65 in 10.0 mi SW 11.5 mph - N/A   Overcast
7:55 PM 30.2 °F 21.3 °F 24.8 °F 80% 29.65 in 10.0 mi SW 10.4 mph - N/A   Overcast
8:15 PM 30.2 °F 23.4 °F 24.8 °F 80% 29.64 in 10.0 mi SW 6.9 mph - N/A   Overcast
8:35 PM 28.4 °F 19.7 °F 24.8 °F 86% 29.64 in 10.0 mi SW 9.2 mph - N/A   Overcast
8:55 PM 30.2 °F 22.6 °F 24.8 °F 80% 29.64 in 10.0 mi SW 8.1 mph - N/A   Overcast
9:15 PM 28.4 °F 21.2 °F 24.8 °F 86% 29.64 in 10.0 mi SW 6.9 mph - N/A   Overcast
9:35 PM 28.4 °F 22.2 °F 24.8 °F 86% 29.63 in 10.0 mi SW 5.8 mph - N/A   Overcast
9:55 PM 28.4 °F 22.2 °F 24.8 °F 86% 29.62 in 10.0 mi SSW 5.8 mph - N/A   Overcast
10:15 PM 28.4 °F 22.2 °F 24.8 °F 86% 29.61 in 10.0 mi South 5.8 mph - N/A   Overcast
10:35 PM 26.6 °F 20.0 °F 23.0 °F 86% 29.60 in 10.0 mi SSW 5.8 mph - N/A   Mostly Cloudy
10:55 PM 24.8 °F 16.9 °F 21.2 °F 86% 29.60 in 10.0 mi South 6.9 mph - N/A   Partly Cloudy
11:15 PM 24.8 °F 19.1 °F 21.2 °F 86% 29.59 in 10.0 mi South 4.6 mph - N/A   Partly Cloudy
11:35 PM 24.8 °F - 23.0 °F 93% 29.59 in 10.0 mi Calm Calm - N/A   Mostly Cloudy
11:55 PM 26.6 °F - 21.2 °F 80% 29.58 in 10.0 mi Calm Calm - N/A   Overcast